Tracking 18856 objects as of 13-Dec-2017
HD Live streaming from Space Station
objects crossing your sky now

GLOBALSTAR M048

Track GLOBALSTAR M048 now!
10-day predictions
GLOBALSTAR M048 is classified as:


NORAD ID: 25872
Int'l Code: 1999-041A
Perigee: 1,987.5 km
Apogee: 2,009.9 km
Inclination: 51.9 °
Period: 127.0 minutes
Semi major axis: 8369 km
RCS: 2.5743 m2 (large)
Launch date: July 25, 1999
Source: Globalstar (GLOB)
Launch site: AIR FORCE EASTERN TEST RANGE (AFETR)
aabbcc
Your satellite tracking list
Your tracking list is empty




NASA's NSSDC Master Catalog

Two Line Element Set (TLE):
1 25872U 99041A   17346.53565819 -.00000059 +00000-0 +29728-3 0  9996
2 25872 051.9390 008.2442 0013388 114.2641 046.0657 11.33811595813990
Source of the keplerian elements: AFSPC